Rbgn^[z[y[W
メイン
   新天体発見情報
     Comet P/2012 K3 = P/2019 S6 = P/2026 L3 (Gibbs)
投稿するにはまず登録を

フラット表示 前のトピック | 次のトピック
投稿者 スレッド
佐藤裕久
投稿日時: 2026-7-21 16:08
モデレータ
登録日: 2005-6-12
居住地: 日本
投稿: 2703
オンライン
Comet P/2012 K3 = P/2019 S6 = P/2026 L3 (Gibbs)

R. Weryk (西オンタリオ大学,物理および天文学科)の通報によると、6月25.5日UT、Haleakalaの
Pan-STARRS1とPan-STARRS2の1.8-m Ritchey-Chretien 反射望遠鏡で得た画像から、P/2012 K3 
(CBET 3122を参照)を偶然再発見した。また、2019年9月の出現時のPan-STARRS1の観測も同定した。
6月13日、1".4-1".7のシーイング条件の下で得た、4枚のスタックした45-秒露出w-バンドPan-
STARRS1サーベイ画像では、1".4(半値全幅:FWHM、明らかなコマなし)の頭部が見えるが尾は
なかった。6月25日、1".2-1".5のシーイング条件の下で得た、4枚のスタックした45-秒露出w-
バンドPan-STARRS1サーベイ画像では、1".5(FWHM)の頭部が見えるがここでもコマは見られず
尾は確認できなかった。
NK 3203 (and ICQ's Comet Handbook for 2026)の中野主一氏の予報に対し、Delta(T)は、
+0.10 dayであった。
MPC 194128 R. Pikeの予報に対する修正値は、Delta(T) = +0.07 dayであった。
彗星年表 2024の佐藤裕久の参考軌道に対する修正値は、Delta(T) = +0.14 dayであった。

再発見位置は次のとおり、

     2019 UT             R.A. (2000) Decl.       Mag.
     Sept.29.23305   19 12 45.77   -24 52 16.2   22.5
          29.24139   19 12 46.50   -24 52 17.3   22.1
          29.24972   19 12 47.21   -24 52 18.9   22.6
          30.22119   19 14 14.35   -24 55 11.6   22.3
          30.22843   19 14 15.00   -24 55 12.4   23.5
          30.23484   19 14 15.59   -24 55 13.9   22.0

     2026 UT             R.A. (2000) Decl.       Mag.
     June 13.53279   20 22 23.91   -11 34 09.9   22.0
          13.55152   20 22 24.15   -11 34 15.1   22.1
          13.56375   20 22 24.29   -11 34 18.7   21.8
          13.57558   20 22 24.43   -11 34 22.0   21.3
          25.51433   20 23 21.58   -12 49 15.0   21.2
          25.52588   20 23 21.49   -12 49 20.3   21.0
          25.53743   20 23 21.41   -12 49 25.7   21.3
          25.54904   20 23 21.32   -12 49 31.1   21.3

小惑星センターは、J. Maikner (W62)の観測を再発見としている。

     2026 UT             R.A. (2000) Decl.       Mag.
     June  8.21632   20 20 43.93   -11 11 54.8   21.2
           8.22824   20 20 44.18   -11 11 58.0   21.0

MPCの連結軌道要素と位置推算表は次のとおり、

Orbital elements:
    P/2012 K3 (Gibbs)                                                           
Epoch 2026 June 9.0 TT = JDT 2461200.5                                          
T 2026 July 15.87585 TT                                 Pike                    
q   2.1011985            (2000.0)            P               Q                  
n   0.14226012     Peri.  172.10194     +0.47091707     +0.86258032             
a   3.6342428      Node   125.80143     -0.82133321     +0.50519323             
e   0.4218332      Incl.   13.17880     -0.32194546     -0.02711074             
P   6.93                                                                        
From 163 observations 2012 May 21-2026 July 14, mean residual 0".6.             
                                                                                
Ephemeris:
Date    TT    R. A. (2000) Decl.     Delta      r    Elong.  Phase   m1
2026 06 16    20 22 54.7 -11 46 42   1.2410  2.1138   138.8    18.5  18.7
...
2026 07 01    20 22 34.0 -13 35 01   1.1448  2.1043   153.6    12.4  18.5
...
2026 07 09    20 20 11.5 -14 53 28   1.1112  2.1019   162.1     8.6  18.5
...
2026 07 15    20 17 38.3 -15 59 46   1.0951  2.1012   168.6     5.5  18.4
2026 07 16    20 17 09.8 -16 11 18   1.0932  2.1012   169.7     4.9  18.4
2026 07 17    20 16 40.8 -16 22 56   1.0916  2.1012   170.8     4.4  18.4
...
2026 07 23    20 13 36.8 -17 34 26   1.0867  2.1019   177.1     1.4  18.4
...
2026 07 31    20 09 26.7 -19 11 11   1.0934  2.1044   172.8     3.4  18.4
...
2026 08 15    20 03 20.2 -21 59 56   1.1461  2.1140   156.5    11.0  18.5

中野主一氏(中央局)の軌道要素は次のとおり、
from 151 observationsspanning 2012 May 21-2026 June 25 (mean residual 0".6). 
この彗星は、2002年11月30日UT、木星から0.21 AUの距離を通過した。

                    Epoch = 2005 Nov.  6.0 TT
     T = 2005 Nov. 11.34085 TT        Peri. = 172.13572
     e = 0.4267351                    Node  = 125.94446 2000.0
     q = 2.0718949 AU                 Incl. =  13.20757
       a =  3.6142018 AU   n = 0.14344502   P =   6.87 years

                    Epoch = 2012 Sept.30.0 TT
     T = 2012 Sept.30.34290 TT        Peri. = 172.30619
     e = 0.4258539                    Node  = 125.87948 2000.0
     q = 2.0768495 AU                 Incl. =  13.20190
       a =  3.6172839 AU   n = 0.14326172   P =   6.88 years

                    Epoch = 2019 Aug. 25.0 TT
     T = 2019 Aug. 17.50104 TT        Peri. = 172.11693
     e = 0.4237213                    Node  = 125.80892 2000.0
     q = 2.0890910 AU                 Incl. =  13.19430
       a =  3.6251398 AU   n = 0.14279629   P =   6.90 years

                    Epoch = 2026 July 19.0 TT
     T = 2026 July 15.87345 TT        Peri. = 172.10113
     e = 0.4218558                    Node  = 125.80135 2000.0
     q = 2.1011979 AU                 Incl. =  13.17884
       a =  3.6343839 AU   n = 0.14225183   P =   6.93 years

                    Epoch = 2033 June 12.0 TT
     T = 2033 June 14.13269 TT        Peri. = 172.05223
     e = 0.4238212                    Node  = 125.78346 2000.0
     q = 2.0904091 AU                 Incl. =  13.19416
       a =  3.6280560 AU   n = 0.14262416   P =   6.91 years

                    Epoch = 2040 May   6.0 TT
     T = 2040 Apr. 28.34966 TT        Peri. = 172.03109
     e = 0.4277095                    Node  = 125.69229 2000.0
     q = 2.0642144 AU                 Incl. =  13.22024
       a =  3.6069343 AU   n = 0.14387877   P =   6.85 years 

(MPEC 2026-O04、CBET 5715、oaa-comet 9294)

フラット表示 前のトピック | 次のトピック

題名 投稿者 日時
 » Comet P/2012 K3 = P/2019 S6 = P/2026 L3 (Gibbs) 佐藤裕久 2026-7-21 16:08

投稿するにはまず登録を
 
© 1999 Tsutomu Seki.